Weather History for Cleveland Burke, OH

Change the Weather History Date:

Thursday, December 6, 2012

  Actual Average Record
Temperature  
Mean Temperature 36 °F -  
Max Temperature 42 °F 42 °F 70 °F (1998)
Min Temperature 30 °F 32 °F 12 °F (2005)
Degree Days  
Heating Degree Days 29    
Moisture  
Dew Point 25 °F    
Average Humidity 64    
Maximum Humidity 73    
Minimum Humidity 51    
Precipitation  
Precipitation 0.00 in - - ()
Sea Level Pressure  
Sea Level Pressure 30.20 in    
Wind  
Wind Speed 5 mph (SE)    
Max Wind Speed 10 mph    
Max Gust Speed -    
Visibility 10 miles    
Events      
Averages and records for this station are not official NWS values.
T = Trace of Precipitation, MM = Missing Value Source: NWS Daily Summary

Daily Weather History Graph

Daily Weather History Graph

Search for Another Location

Airport:

Trip Planner

Search our weather history database for the weather conditions in past years. The results will help you decide how hot, cold, wet, or windy it might be!

Date:

Astronomy

Dec. 06, 2012 Rise Set
Actual Time 7:39 AM EST 4:56 PM EST
Civil Twilight 7:08 AM EST 5:27 PM EST
Nautical Twilight 6:33 AM EST 6:02 PM EST
Astronomical Twilight 5:59 AM EST 6:36 PM EST
Moon No Moon Rise 12:26 PM EST (12/6)
Length of Visible Light 10h 19m
Length of Day
9h 17m
Waning Gibbous, 49% of the Moon is Illuminated
Dec 6
Waning Gibbous
Dec 13
New
Dec 20
First Quarter
Dec 28
Full
Jan 4
Last Quarter

Hourly Weather History & Observations

Time (EST) Temp. Windchill Dew Point Humidity Pressure Visibility Wind Dir Wind Speed Gust Speed Precip Events Conditions
12:53 AM 35.1 °F 31.0 °F 24.1 °F 64% 30.36 in 10.0 mi East 4.6 mph - N/A   Scattered Clouds
1:48 AM 33.8 °F - 24.8 °F 70% 30.33 in 10.0 mi Calm Calm - N/A   Mostly Cloudy
1:53 AM 34.0 °F - 24.1 °F 67% 30.35 in 10.0 mi Calm Calm - N/A   Mostly Cloudy
2:53 AM 34.0 °F 28.8 °F 25.0 °F 70% 30.36 in 10.0 mi ESE 5.8 mph - N/A   Overcast
3:33 AM 33.8 °F 29.6 °F 24.8 °F 70% 30.32 in 10.0 mi ESE 4.6 mph - N/A   Scattered Clouds
3:53 AM 33.1 °F 30.0 °F 24.1 °F 70% 30.34 in 10.0 mi ESE 3.5 mph - N/A   Clear
4:53 AM 32.0 °F 25.6 °F 24.1 °F 73% 30.32 in 10.0 mi ESE 6.9 mph - N/A   Clear
5:53 AM 32.0 °F 27.5 °F 23.0 °F 69% 30.32 in 10.0 mi East 4.6 mph - N/A   Clear
6:53 AM 30.9 °F 24.3 °F 23.0 °F 72% 30.31 in 10.0 mi ESE 6.9 mph - N/A   Mostly Cloudy
7:53 AM 30.9 °F 23.5 °F 21.9 °F 69% 30.30 in 10.0 mi SE 8.1 mph - N/A   Mostly Cloudy
8:53 AM 30.9 °F 22.2 °F 21.9 °F 69% 30.29 in 10.0 mi SE 10.4 mph - N/A   Mostly Cloudy
9:53 AM 32.0 °F 23.6 °F 21.9 °F 66% 30.25 in 10.0 mi SE 10.4 mph - N/A   Mostly Cloudy
10:53 AM 35.1 °F 27.4 °F 24.1 °F 64% 30.22 in 10.0 mi SSE 10.4 mph - N/A   Clear
11:53 AM 37.0 °F 31.0 °F 24.1 °F 59% 30.19 in 10.0 mi SSE 8.1 mph - N/A   Clear
12:53 PM 39.9 °F 34.5 °F 25.0 °F 55% 30.14 in 10.0 mi SSE 8.1 mph - N/A   Clear
1:53 PM 42.1 °F 36.6 °F 25.0 °F 51% 30.12 in 10.0 mi SSE 9.2 mph - N/A   Clear
2:53 PM 42.1 °F 37.7 °F 25.0 °F 51% 30.10 in 10.0 mi South 6.9 mph - N/A   Clear
3:53 PM 42.1 °F - 28.0 °F 58% 30.09 in 10.0 mi Calm Calm - N/A   Clear
4:53 PM 39.0 °F 36.8 °F 28.9 °F 67% 30.09 in 10.0 mi NNW 3.5 mph - N/A   Clear
5:53 PM 39.9 °F - 30.0 °F 68% 30.08 in 10.0 mi Calm Calm - N/A   Clear
6:53 PM 41.0 °F 39.0 °F 28.9 °F 62% 30.07 in 10.0 mi SE 3.5 mph - N/A   Clear
7:53 PM 41.0 °F 38.0 °F 27.0 °F 57% 30.06 in 10.0 mi South 4.6 mph - N/A   Clear
8:53 PM 39.9 °F 35.8 °F 27.0 °F 60% 30.05 in 10.0 mi SSE 5.8 mph - N/A   Clear
9:53 PM 39.9 °F 36.7 °F 27.0 °F 60% 30.02 in 10.0 mi SSE 4.6 mph - N/A   Clear
10:53 PM 41.0 °F 37.1 °F 28.0 °F 60% 30.01 in 10.0 mi SSE 5.8 mph - N/A   Clear
11:53 PM 41.0 °F 36.4 °F 28.0 °F 60% 29.99 in 10.0 mi SSE 6.9 mph - N/A   Clear